Wind_Speed
27 36 35 36 37 35 32 31 29 27 24 22 20 19 17 15 15 17 19 21 21 23 24 24 23 22 22 24 24 24 25 28 26 21 21 21 19 16 16 16 16 15 14
14 34 34 35 35 35 34 32 29 27 25 22 20 18 16 15 17 20 22 23 24 24 25 24 24 25 24 24 24 27 31 29 27 26 17 19 19 18 17 17 17 15 13
41 29 29 32 35 35 34 33 30 27 25 23 21 18 16 17 20 23 25 25 24 25 24 24 25 25 24 24 25 28 27 25 25 23 18 16 17 16 16 15 16 16 17
18 27 29 27 34 35 35 33 30 27 25 23 21 18 18 21 23 25 26 25 24 25 24 24 24 24 23 23 26 27 25 24 19 20 11 11 17 15 14 14 11 12 12
21 23 28 27 29 33 34 32 30 26 25 23 21 20 21 24 25 26 26 25 23 24 24 24 23 22 22 23 25 26 22 18 13 5 5 13 16 15 14 13 12 11 10
24 25 29 30 32 33 34 32 29 26 25 23 21 23 25 26 27 26 26 25 23 24 24 23 21 19 19 21 22 22 19 18 18 7 13 15 16 15 15 14 13 12 11
26 22 26 30 32 34 34 32 29 27 25 22 23 26 27 27 27 27 26 25 23 22 22 20 19 17 17 17 18 18 21 20 12 7 9 16 15 15 15 14 14 13 12
27 13 23 25 28 33 34 33 31 28 25 24 26 28 28 29 28 28 27 24 23 21 20 18 16 15 16 15 16 18 18 19 15 7 9 11 14 14 14 14 14 14 13
23 11 22 9 22 36 36 32 29 26 25 27 28 28 28 28 27 26 25 23 22 20 18 17 15 14 14 13 15 18 19 18 13 7 6 13 13 14 14 14 14 14 12
21 16 26 23 22 27 30 29 28 27 27 28 29 29 30 29 28 26 24 22 21 19 17 15 13 12 11 12 15 16 16 16 11 1 5 11 13 14 14 13 13 14 13
16 16 20 28 22 26 25 25 23 25 25 25 28 29 29 29 26 25 21 20 19 17 16 13 10 9 10 11 12 12 10 12 3 5 8 10 9 11 12 11 12 13 12
12 16 23 26 31 33 32 29 25 23 24 25 27 27 26 26 24 23 20 19 17 16 14 11 9 12 11 9 7 6 8 11 1 5 6 8 6 7 9 11 11 10 10
25 24 24 28 30 37 33 39 40 38 25 26 27 25 26 22 22 21 21 19 17 14 13 11 10 8 9 6 1 3 7 5 2 7 8 6 2 4 7 10 10 11 10
20 29 35 35 36 39 39 34 34 36 31 31 26 21 19 17 19 20 19 17 15 14 13 11 8 6 4 2 1 2 5 6 8 6 5 6 3 3 6 7 9 9 9
23 26 29 33 36 39 37 37 35 32 35 31 26 22 18 17 17 18 16 17 16 11 12 10 9 6 2 2 1 3 4 4 8 5 7 5 4 5 4 3 4 6 9
22 28 31 36 36 39 40 37 40 39 35 30 31 25 17 15 11 12 12 13 12 13 11 12 8 4 1 3 1 0 2 2 1 2 7 5 4 5 7 7 9 9 9
28 31 29 27 32 35 38 38 36 39 32 35 28 21 18 13 16 15 14 13 17 14 13 10 8 6 6 4 7 1 1 4 2 9 4 8 6 5 6 9 12 11 13
24 27 25 28 29 32 34 34 33 35 29 24 26 27 23 19 17 17 18 20 18 16 17 14 12 10 9 7 6 2 3 5 5 3 7 4 5 5 8 11 11 13 12
26 25 27 27 29 30 31 36 34 30 25 17 17 18 19 23 20 23 21 18 18 19 16 13 12 12 12 9 7 8 7 5 9 2 10 10 13 9 8 10 13 14 10
24 33 39 36 31 29 32 28 25 21 20 21 23 26 24 25 25 23 18 16 18 18 16 17 15 14 13 10 9 10 13 9 10 12 13 12 8 14 14 9 13 12 11
38 41 32 28 23 23 26 25 23 27 28 27 32 30 26 24 23 21 17 17 19 19 18 16 18 17 17 18 16 12 11 15 11 13 13 14 12 12 12 15 19 7 11
38 29 22 17 20 23 23 22 24 23 22 21 21 26 24 24 24 21 20 21 20 21 18 20 21 21 17 15 12 10 7 11 12 15 13 15 16 17 17 14 14 17 18
30 29 27 28 20 19 19 23 23 21 21 22 26 27 25 24 22 21 20 23 22 22 23 25 22 20 16 19 15 11 5 6 10 12 17 17 15 18 19 15 17 20 16
31 26 28 29 29 20 23 27 26 26 27 26 26 26 23 26 24 22 22 24 25 22 24 27 22 23 21 20 20 15 12 13 9 8 6 10 18 18 18 17 16 17 18
35 33 29 30 27 28 24 24 27 24 23 24 25 26 24 23 25 25 26 27 30 26 27 30 26 24 23 24 21 19 14 11 10 11 14 16 14 14 15 16 15 13 17
36 36 34 31 30 28 32 27 24 25 25 24 24 26 28 26 26 24 24 30 28 27 29 31 25 24 28 26 25 20 14 12 10 12 16 17 17 20 22 22 21 22 26
Wind_Direction
170 175 170 166 164 162 160 159 156 154 154 148 143 137 129 127 126 124 121 118 116 116 113 113 111 104 98 91 84 79 76 71 62 61 73 79 80 76 69 61 66 66 65
156 169 171 169 168 165 162 162 160 158 155 149 146 140 134 130 128 125 123 120 120 119 116 111 105 99 95 91 86 84 80 76 65 45 53 68 67 63 61 59 57 58 58
304 173 170 172 170 167 165 164 163 160 155 152 149 142 136 135 131 128 125 123 123 119 114 109 104 99 93 89 88 90 83 83 80 64 30 53 64 60 58 55 55 54 53
234 178 173 176 171 169 167 165 164 160 157 153 149 142 140 137 133 131 127 125 124 120 117 112 106 99 92 88 95 96 87 82 80 88 81 42 57 54 52 56 52 50 46
180 178 176 174 174 170 168 167 166 161 157 153 150 146 144 139 136 134 131 126 125 123 119 113 106 99 93 88 101 98 93 89 98 70 67 53 53 52 50 51 52 53 47
175 188 179 175 171 170 170 171 166 160 157 156 153 147 144 141 139 137 134 131 129 124 121 115 108 99 91 88 102 98 93 87 101 33 44 56 55 49 47 46 47 47 47
177 198 184 176 175 170 170 171 164 162 159 159 155 149 147 145 144 143 140 138 131 127 124 118 109 101 89 85 95 103 89 88 71 18 13 34 49 48 45 44 44 45 44
172 175 179 180 178 170 170 166 163 161 161 161 155 153 151 149 148 146 145 139 131 131 126 119 111 100 88 79 81 108 93 88 71 42 2 33 49 48 44 44 45 47 46
192 185 153 187 193 177 168 160 159 161 163 161 157 153 150 147 144 142 140 138 139 135 130 123 113 95 87 80 83 105 97 89 87 71 348 11 32 40 43 42 42 46 44
177 202 190 224 148 115 138 146 155 160 162 161 156 152 151 148 146 145 144 144 141 137 135 125 113 96 86 81 89 94 83 81 57 257 321 5 16 32 42 48 47 49 48
176 191 187 186 188 203 153 141 146 155 154 155 152 151 150 146 147 149 148 148 143 140 136 127 111 95 73 69 84 86 87 106 82 303 318 353 15 23 29 46 51 54 45
168 187 185 180 187 175 170 158 155 146 148 151 151 149 145 146 149 151 149 153 147 144 140 129 110 90 61 40 51 64 83 98 31 306 327 355 14 8 13 22 42 53 49
155 171 183 188 186 180 174 168 165 156 150 160 149 150 144 153 158 158 158 156 151 153 152 144 126 131 130 198 343 24 94 94 88 301 314 337 10 345 356 6 14 16 28
167 170 174 185 169 159 170 166 161 152 167 147 143 148 155 161 166 168 164 162 165 165 162 153 185 175 183 233 27 95 135 165 156 280 321 352 319 281 324 342 356 357 4
162 165 170 166 150 158 157 153 150 158 160 152 150 153 168 186 177 174 176 176 175 173 168 183 199 192 216 213 355 22 33 62 129 261 318 338 289 256 268 295 322 333 325
163 159 160 163 154 153 151 159 162 161 157 158 160 165 184 174 176 164 186 175 164 202 176 206 197 207 175 281 240 237 182 188 84 236 301 324 320 247 251 271 281 282 285
159 160 158 160 163 162 164 168 168 162 165 167 178 194 187 184 187 191 200 178 193 202 199 195 204 184 228 190 267 226 341 326 319 173 259 301 314 301 275 288 285 282 280
148 141 151 161 165 166 166 172 170 157 175 193 204 200 202 193 201 199 207 197 207 195 211 209 205 207 206 215 208 254 239 275 278 275 204 193 287 273 287 293 289 295 286
153 148 149 150 151 149 150 151 156 170 187 198 202 217 217 203 204 203 213 212 211 210 222 210 204 215 216 200 243 237 243 233 280 243 253 251 222 243 258 267 285 296 304
152 148 143 141 147 153 158 168 179 196 190 200 206 205 212 209 217 215 221 219 218 220 214 213 214 210 219 207 202 249 266 275 251 243 259 266 269 266 279 277 272 300 297
156 150 153 162 172 178 187 186 189 195 195 200 203 214 221 215 219 223 222 215 230 225 229 221 208 219 208 215 219 238 272 276 260 258 257 253 245 255 285 279 287 290 283
159 172 180 185 191 189 189 186 197 202 200 200 206 209 218 219 225 228 225 228 239 217 217 226 228 221 223 232 222 239 245 215 253 283 286 251 247 260 261 266 287 268 286
182 184 187 199 196 195 185 192 197 202 203 203 212 226 227 225 222 234 227 222 240 216 221 232 233 223 213 226 234 211 220 231 263 284 268 261 240 262 275 270 252 269 280
200 196 202 198 202 206 196 200 201 202 203 205 217 233 235 230 223 229 233 219 231 224 221 239 244 230 207 231 245 234 231 249 269 263 257 239 272 275 276 276 279 266 262
199 204 200 203 207 211 204 209 202 206 213 209 214 230 239 242 225 226 231 223 225 231 231 236 244 229 216 223 225 233 258 278 281 267 273 285 266 283 292 290 287 266 246
204 205 208 208 210 210 213 211 212 220 207 212 214 225 240 250 235 234 244 231 231 239 236 228 235 220 217 224 224 230 251 264 258 261 269 271 270 264 261 267 275 279 281
Height
1470 1481 1483 1484 1483 1485 1492 1498 1504 1509 1514 1518 1522 1525 1528 1531 1533 1535 1538 1540 1543 1545 1547 1550 1551 1553 1555 1555 1557 1557 1557 1559 1560 1561 1559 1559 1560 1561 1560 1559 1560 1560 1561
1491 1479 1482 1486 1487 1487 1490 1497 1504 1510 1514 1518 1523 1527 1530 1532 1534 1537 1540 1543 1545 1548 1550 1552 1553 1555 1557 1558 1560 1561 1562 1563 1563 1563 1563 1562 1562 1563 1562 1562 1562 1563 1563
1472 1486 1486 1489 1489 1489 1492 1497 1505 1511 1516 1519 1523 1527 1531 1534 1536 1540 1543 1546 1548 1550 1553 1555 1556 1559 1561 1562 1563 1565 1565 1567 1568 1569 1566 1564 1565 1564 1564 1564 1564 1564 1565
1489 1490 1486 1492 1490 1491 1493 1498 1506 1512 1518 1521 1525 1528 1532 1536 1539 1542 1546 1549 1551 1552 1556 1558 1561 1561 1564 1564 1566 1567 1568 1570 1571 1570 1568 1567 1567 1566 1566 1564 1566 1566 1566
1489 1491 1490 1493 1496 1494 1497 1500 1507 1514 1519 1523 1526 1529 1534 1538 1542 1545 1548 1552 1554 1556 1559 1561 1564 1565 1566 1567 1570 1570 1571 1572 1572 1571 1570 1569 1568 1567 1568 1566 1567 1567 1567
1487 1491 1489 1494 1493 1495 1498 1502 1510 1515 1521 1524 1527 1531 1535 1540 1544 1547 1551 1553 1556 1559 1562 1564 1566 1568 1569 1569 1572 1572 1573 1574 1572 1570 1570 1570 1570 1570 1569 1569 1568 1568 1568
1482 1488 1491 1494 1494 1493 1497 1503 1511 1517 1522 1525 1528 1532 1536 1541 1545 1549 1553 1555 1558 1561 1564 1566 1568 1571 1570 1572 1573 1574 1575 1576 1574 1572 1572 1572 1572 1571 1571 1571 1571 1570 1569
1482 1486 1482 1493 1492 1495 1497 1502 1510 1516 1522 1526 1530 1534 1538 1542 1546 1550 1554 1557 1560 1563 1565 1568 1570 1572 1572 1574 1575 1576 1577 1577 1578 1574 1572 1574 1574 1573 1573 1572 1571 1571 1572
1480 1480 1483 1486 1485 1489 1496 1503 1512 1518 1522 1527 1531 1536 1541 1545 1549 1552 1556 1559 1561 1564 1568 1570 1572 1573 1574 1575 1576 1578 1579 1579 1579 1575 1572 1575 1574 1574 1575 1574 1573 1572 1573
1484 1482 1488 1486 1486 1473 1493 1505 1514 1519 1525 1530 1533 1538 1544 1547 1551 1555 1557 1560 1562 1565 1568 1571 1573 1574 1575 1576 1576 1579 1579 1579 1579 1576 1576 1576 1574 1574 1574 1575 1575 1573 1573
1482 1484 1486 1488 1488 1492 1500 1510 1519 1523 1529 1535 1538 1542 1546 1550 1552 1556 1560 1563 1564 1566 1569 1571 1573 1575 1577 1577 1577 1578 1578 1579 1578 1576 1577 1576 1575 1575 1575 1575 1575 1573 1574
1477 1481 1487 1488 1491 1495 1504 1508 1519 1527 1530 1538 1542 1545 1549 1551 1554 1558 1562 1565 1565 1567 1570 1572 1574 1575 1576 1578 1577 1578 1579 1578 1578 1578 1578 1577 1575 1576 1575 1576 1575 1575 1575
1478 1482 1486 1489 1494 1497 1501 1512 1519 1523 1532 1543 1545 1548 1552 1552 1557 1559 1563 1565 1566 1568 1569 1572 1574 1575 1576 1578 1578 1578 1578 1580 1579 1577 1577 1577 1576 1576 1576 1576 1576 1575 1575
1483 1484 1488 1491 1495 1491 1504 1514 1522 1526 1538 1543 1544 1550 1552 1555 1559 1561 1563 1565 1567 1568 1570 1572 1573 1574 1576 1578 1578 1578 1580 1578 1579 1577 1577 1576 1576 1577 1576 1577 1577 1576 1576
1483 1487 1492 1496 1497 1502 1508 1516 1522 1530 1537 1539 1543 1547 1554 1560 1559 1563 1564 1565 1567 1568 1570 1571 1573 1575 1576 1577 1577 1577 1578 1578 1579 1576 1576 1576 1577 1577 1576 1577 1577 1576 1575
1483 1490 1494 1499 1502 1504 1506 1518 1519 1527 1536 1541 1545 1553 1559 1559 1561 1564 1565 1566 1568 1569 1569 1570 1572 1574 1575 1576 1576 1578 1578 1575 1577 1576 1575 1576 1576 1576 1576 1576 1577 1576 1574
1490 1494 1499 1503 1506 1508 1513 1518 1524 1532 1540 1547 1551 1555 1557 1558 1563 1564 1564 1567 1567 1568 1568 1570 1571 1573 1575 1575 1575 1576 1576 1575 1575 1576 1576 1575 1575 1575 1575 1575 1574 1574 1572
1495 1499 1500 1507 1510 1513 1517 1523 1530 1536 1544 1549 1552 1553 1555 1560 1562 1563 1564 1564 1566 1568 1566 1568 1570 1571 1573 1575 1576 1574 1574 1574 1574 1575 1576 1575 1573 1573 1573 1572 1571 1570 1569
1498 1500 1504 1508 1512 1517 1521 1526 1531 1538 1543 1546 1549 1551 1554 1557 1559 1559 1560 1561 1563 1563 1565 1566 1569 1570 1571 1573 1573 1573 1573 1573 1572 1574 1574 1574 1574 1573 1571 1571 1569 1568 1566
1499 1503 1507 1510 1515 1519 1524 1529 1534 1538 1540 1544 1547 1548 1550 1553 1555 1557 1557 1559 1560 1561 1562 1564 1566 1568 1570 1571 1572 1570 1570 1570 1570 1572 1571 1570 1570 1569 1571 1568 1566 1566 1565
1502 1504 1508 1512 1515 1519 1524 1527 1532 1535 1538 1542 1543 1546 1547 1549 1551 1553 1554 1555 1556 1558 1560 1561 1564 1566 1567 1567 1569 1568 1568 1568 1568 1570 1569 1569 1569 1568 1567 1566 1564 1563 1561
1501 1505 1508 1511 1515 1518 1522 1525 1529 1532 1535 1537 1539 1541 1543 1546 1547 1549 1550 1551 1553 1555 1557 1557 1560 1562 1564 1564 1566 1566 1567 1567 1566 1566 1565 1565 1565 1564 1564 1563 1561 1560 1559
1499 1502 1505 1508 1513 1517 1519 1523 1527 1531 1532 1534 1536 1536 1539 1542 1543 1544 1547 1548 1549 1552 1553 1553 1556 1558 1561 1560 1562 1563 1563 1562 1562 1562 1560 1561 1561 1559 1558 1558 1559 1558 1555
1494 1499 1502 1507 1510 1512 1516 1519 1521 1524 1526 1528 1531 1532 1535 1537 1539 1540 1541 1544 1545 1547 1549 1549 1551 1553 1556 1556 1556 1557 1557 1558 1558 1558 1558 1557 1557 1555 1553 1553 1551 1552 1552
1490 1494 1499 1504 1507 1510 1512 1515 1517 1520 1523 1526 1529 1528 1531 1532 1535 1537 1538 1538 1539 1539 1542 1545 1545 1546 1550 1551 1551 1551 1553 1553 1554 1553 1552 1552 1554 1554 1551 1549 1548 1546 1546
1486 1490 1493 1498 1502 1505 1506 1510 1512 1514 1519 1522 1524 1526 1525 1527 1528 1530 1533 1534 1534 1535 1537 1538 1541 1541 1542 1543 1545 1546 1548 1549 1549 1550 1549 1548 1547 1547 1547 1546 1545 1544 1542